Location: Aubervilles
(48.9167°N, 2.3833°E)
Time: 10:22:55
(UTC+00:00)

Cosmos 468 Rocket - Pass Details

Date: 03 February 2023
Orbit: 744 x 778 km, 74.0° (Epoch: 29 March)

Event Time Altitude Azimuth Distance (km) Brightness Sun altitude
Rises 17:59:18 0° 337° (NNW) 3,224 7.4 -11.5°
Reaches altitude 10° 18:01:42 10° 339° (NNW) 2,289 6.6 -11.9°
Maximum altitude 18:06:53 77° 66° (ENE) 776 3.9 -12.7°
Drops below altitude 10° 18:12:00 10° 152° (SSE) 2,257 6.3 -13.6°
Sets 18:14:21 0° 154° (SSE) 3,175 7.0 -13.9°
